GFSNW_850_spd_231.txt.gz
Wind_Speed
55 66 66 60 61 59 57 43 11 34 42 17 26 22 31 34 32 16 12 5 19 18 17 16 19 17 13 15 12 8 17 7 14 22 17 15 15 19 17 13 15 16 16 15
69 73 62 69 72 68 66 39 14 34 48 16 20 27 31 31 30 20 20 13 14 15 17 12 17 21 13 11 13 7 8 8 13 19 16 17 14 20 21 20 20 26 19 13
70 79 63 77 72 74 63 27 9 18 38 44 28 30 30 32 39 23 28 16 20 18 20 19 11 21 10 7 10 3 3 14 18 15 17 16 19 19 20 21 18 19 22 26
55 66 61 67 71 78 59 26 10 19 16 26 29 27 20 32 33 34 27 23 23 21 22 22 23 19 11 4 6 4 6 20 21 25 26 26 28 29 28 29 26 24 20 30
26 50 70 69 74 78 54 24 16 31 13 32 30 28 32 32 35 27 31 29 26 23 24 24 19 16 16 13 13 9 10 19 19 27 25 26 33 33 30 32 32 35 32 39
24 36 52 70 71 79 44 36 28 34 22 21 22 32 37 33 24 35 38 30 22 25 31 26 23 8 15 15 17 20 18 14 8 20 18 22 28 24 35 36 35 29 33 39
16 28 31 47 56 66 32 41 27 12 6 21 25 27 33 33 33 31 28 38 27 39 11 26 25 16 16 17 22 21 16 17 7 5 4 16 14 17 20 23 29 31 35 31
9 16 24 21 26 21 27 26 24 14 10 10 19 21 25 32 34 28 29 37 52 31 28 3 0 0 3 14 22 27 19 11 4 6 9 22 31 19 14 18 26 22 25 27
9 11 16 17 19 14 19 25 22 8 5 5 14 11 20 15 21 20 27 36 35 35 9 4 9 7 6 9 6 24 25 19 12 4 6 15 12 15 26 28 34 23 28 28
16 13 13 13 17 18 18 14 17 13 7 4 4 3 9 11 7 4 5 17 12 29 9 8 7 8 9 9 11 6 16 14 20 16 11 17 13 18 7 16 11 7 9 13
18 18 17 18 16 15 17 16 15 11 6 5 3 4 1 3 6 8 3 4 4 4 6 5 3 6 8 8 17 21 14 10 10 12 11 25 9 17 28 15 26 28 20 17
18 19 19 19 18 17 12 9 9 11 5 3 5 2 2 8 9 5 3 3 4 5 3 2 3 4 3 12 14 19 18 10 10 15 13 19 16 18 23 28 35 37 33 27
19 18 18 19 19 21 23 19 18 13 6 2 10 6 7 13 8 2 4 4 4 5 8 2 1 3 5 6 14 17 11 16 15 21 25 24 32 33 31 40 30 22 19 12
18 20 22 23 24 24 26 22 24 14 9 3 2 6 11 13 14 15 11 4 7 2 3 2 1 1 2 2 3 2 5 10 8 14 12 16 25 19 19 17 16 16 12 13
18 20 21 23 24 23 27 23 19 19 5 3 4 2 4 5 10 15 12 10 9 6 3 2 3 3 4 3 3 9 6 10 5 2 6 9 6 13 13 11 13 14 12 15
17 18 21 23 24 24 23 5 22 24 14 3 2 3 4 4 6 11 10 9 6 3 2 2 4 4 8 4 4 14 23 24 22 10 9 16 22 22 21 19 16 14 15 16
17 17 20 24 25 25 19 7 7 27 22 4 4 5 2 6 6 5 7 11 5 5 4 4 6 7 6 3 11 23 29 29 26 19 14 18 23 18 17 16 21 21 18 17
17 19 21 24 29 28 18 4 12 28 10 3 2 4 6 9 5 5 4 5 4 3 3 3 3 7 3 6 17 26 28 28 29 30 21 26 30 29 30 26 24 20 19 18
23 26 29 31 21 8 12 11 31 19 6 5 3 5 4 8 4 4 4 3 2 4 3 4 6 6 6 14 18 23 26 25 24 25 21 24 26 26 25 24 21 17 17 13
27 29 8 5 13 24 27 17 7 6 3 3 4 9 5 8 6 5 6 5 3 3 6 4 5 9 26 27 25 27 27 21 18 20 20 23 25 20 19 20 18 12 9 7
17 5 5 29 33 16 3 4 4 4 4 7 7 9 5 7 5 4 6 3 3 3 4 4 4 6 5 4 8 9 10 10 13 16 20 19 20 19 15 6 4 8 10 11
5 19 23 14 5 3 3 4 4 5 5 8 8 9 6 6 3 3 3 3 3 5 3 2 4 5 5 3 5 7 8 7 7 7 7 4 4 1 4 5 7 9 12 14
29 7 5 5 3 3 4 6 3 4 6 9 10 6 5 4 5 3 4 5 5 1 3 4 4 2 4 7 7 6 6 6 5 3 3 2 2 2 7 13 17 17 13 9
3 4 3 3 3 4 2 4 4 6 9 15 14 8 3 5 5 3 4 3 3 4 4 6 3 6 5 6 4 4 5 5 5 8 9 10 11 12 12 13 11 8 8 8
1 1 2 2 3 4 3 4 7 7 12 16 8 4 6 4 4 4 3 3 5 5 5 2 4 3 3 1 1 3 5 7 8 9 11 12 12 12 13 10 9 8 7 5
2 3 3 4 4 2 2 4 7 8 16 13 5 4 4 4 3 5 7 4 5 3 1 4 2 1 1 3 4 6 8 9 9 10 10 10 11 11 10 9 7 6 5 3
1 2 3 3 3 5 7 8 9 13 13 4 3 6 6 3 4 5 4 5 4 4 2 1 1 2 4 6 7 9 11 10 9 9 9 9 9 9 8 8 7 5 4 4

GFSNW_850_spd_237.txt.gz
Wind_Speed
42 41 38 37 38 36 34 41 16 38 62 15 20 21 37 20 24 30 16 13 9 9 8 9 15 13 8 16 16 12 10 5 5 10 7 6 8 9 8 5 7 5 8 9
42 42 40 38 38 35 29 42 26 46 69 18 18 32 27 24 17 28 16 13 9 4 5 11 9 11 16 13 12 7 6 3 1 7 6 4 5 5 6 5 4 10 8 7
44 46 41 39 39 41 42 33 9 23 50 41 29 28 21 29 31 23 14 13 12 9 6 4 1 6 5 5 6 7 6 4 7 9 6 1 5 5 6 5 4 10 12 20
43 44 44 40 42 41 39 38 7 13 23 20 24 31 27 24 20 29 19 15 23 11 6 4 6 3 1 7 3 4 4 5 2 7 4 4 10 15 14 12 16 16 17 23
41 46 47 42 43 41 43 17 7 19 19 51 33 20 17 34 28 22 34 19 18 17 10 7 4 2 3 3 3 3 0 2 2 15 4 7 20 21 15 19 22 22 26 32
37 42 38 40 41 44 24 32 29 26 20 29 21 24 31 32 25 28 28 31 12 14 18 14 14 2 4 2 6 7 6 4 3 14 4 8 20 8 18 21 18 19 25 28
38 36 37 36 38 50 47 44 43 15 12 22 27 34 29 24 26 26 29 21 21 10 11 17 9 1 4 7 4 7 4 5 4 3 5 10 4 5 7 6 8 10 17 18
29 34 33 38 45 57 63 56 44 20 5 22 27 20 23 15 25 15 16 34 22 30 10 5 5 4 2 18 8 7 7 5 0 3 6 16 29 17 15 15 28 18 19 16
25 23 31 33 57 69 53 61 44 32 11 13 29 21 16 19 16 5 21 26 32 19 4 4 7 8 6 6 5 16 7 7 6 4 4 18 25 7 12 5 11 17 14 11
14 12 30 24 55 70 57 49 42 35 12 5 20 14 24 24 19 11 3 15 9 29 4 2 6 11 10 13 12 5 10 7 17 15 10 14 3 7 13 9 4 18 21 20
5 8 27 36 54 65 56 46 43 30 10 8 6 9 6 20 29 14 9 8 5 2 6 8 5 5 7 6 18 16 11 8 12 11 11 23 2 7 17 6 19 21 22 23
8 7 20 29 48 62 52 41 45 25 21 11 20 19 13 13 19 22 5 5 3 5 5 3 3 1 1 9 16 12 15 13 10 12 7 2 5 17 8 14 7 13 14 18
10 13 13 19 22 41 39 41 36 28 26 15 12 11 14 15 11 16 10 4 8 6 8 4 1 2 2 6 11 5 13 7 9 3 9 6 7 8 10 19 17 14 18 16
15 15 21 24 21 31 38 41 30 28 16 5 5 10 13 10 11 12 11 23 18 18 11 4 2 2 2 0 2 3 2 2 1 1 2 10 13 8 21 15 16 17 21 17
18 20 23 27 26 26 23 25 27 23 13 3 7 18 12 13 12 14 17 19 21 10 4 2 2 4 3 1 1 2 2 2 1 3 6 10 14 21 20 14 13 20 18 16
19 22 23 24 25 25 23 12 19 31 34 9 3 9 8 10 12 14 17 20 16 5 6 3 6 8 6 2 3 5 13 14 3 3 11 16 18 21 19 18 16 18 16 17
20 20 22 22 22 12 11 7 23 20 17 8 4 2 6 12 16 10 18 13 7 5 4 3 6 6 12 2 3 4 9 12 16 19 22 19 17 16 16 20 17 17 16 15
22 23 22 19 16 17 23 25 22 16 13 7 4 2 3 7 5 5 6 5 5 3 4 3 2 8 5 4 9 9 9 8 8 9 13 19 17 11 13 13 11 15 11 13
24 25 25 20 8 8 16 23 17 9 8 4 3 6 3 8 4 5 4 4 2 5 2 2 5 2 4 7 6 9 7 4 4 4 7 8 9 11 13 15 13 13 15 8
29 26 7 5 7 21 21 7 3 5 5 3 3 10 4 12 9 3 4 2 3 3 5 6 2 3 18 11 10 3 6 5 4 5 6 7 8 8 6 5 4 3 4 4
11 5 5 25 21 4 4 3 2 0 2 1 4 13 7 9 3 3 6 3 2 2 3 5 3 3 2 14 16 12 10 5 6 5 4 4 3 5 5 5 5 4 4 6
3 18 20 9 3 3 3 2 3 2 3 4 5 12 8 7 5 4 1 3 2 2 7 3 1 3 17 18 15 8 5 4 2 3 3 4 4 4 4 7 10 9 9 11
22 5 2 1 1 2 3 3 2 2 3 8 10 4 5 4 4 2 3 3 3 4 2 3 4 12 18 18 13 9 6 8 11 11 9 9 11 12 12 17 16 14 13 11
2 3 2 1 1 2 1 1 4 5 14 21 19 6 3 3 3 2 3 3 3 2 2 5 3 16 15 9 6 5 10 10 8 7 8 13 16 15 13 11 9 8 9 7
2 2 1 2 4 8 8 13 14 20 26 21 10 6 4 1 3 1 3 2 3 4 4 3 13 16 12 12 7 9 9 9 9 11 13 13 13 10 8 7 7 7 6 6
1 2 3 9 6 2 5 9 11 19 24 16 4 3 3 2 4 3 4 5 5 3 3 19 17 16 15 12 10 9 10 11 11 11 10 9 7 7 9 9 9 8 8 6
2 1 6 9 9 8 4 6 7 15 10 2 2 4 5 2 2 3 4 4 3 12 16 15 15 14 13 9 12 13 14 12 11 13 12 10 12 9 8 8 8 7 8 7

GFSNW_850_spd_243.txt.gz
Wind_Speed
33 35 36 34 30 25 19 14 6 12 10 10 6 10 10 34 25 45 20 4 21 5 8 10 12 14 11 21 14 15 10 4 4 10 4 1 3 8 7 5 6 3 4 6
33 33 36 36 32 29 27 12 17 18 12 8 12 17 18 24 17 25 27 20 5 15 6 3 10 8 9 21 15 16 10 6 1 8 5 1 6 7 5 4 3 6 5 6
30 29 33 36 35 34 31 12 3 16 25 32 11 18 21 18 37 19 31 32 24 10 6 7 5 8 2 16 16 20 22 5 8 10 6 5 5 6 6 7 4 4 6 5
29 32 38 36 38 37 37 22 7 12 6 14 23 19 16 28 16 26 29 26 19 21 11 9 8 3 3 2 4 7 10 8 6 6 6 4 4 5 9 6 5 6 6 9
31 29 34 39 42 41 42 27 9 19 18 19 19 23 15 25 27 19 27 24 34 19 22 6 5 6 5 5 4 7 3 4 5 5 6 7 5 8 7 4 4 6 5 13
32 30 31 31 44 47 41 35 29 21 14 17 16 17 30 24 28 36 39 42 16 20 24 5 8 8 10 6 8 7 8 7 5 5 4 4 6 9 11 7 5 8 9 13
33 32 31 33 41 49 47 37 30 19 14 11 14 25 25 36 28 33 37 31 27 32 15 25 11 5 5 3 5 5 4 5 3 4 3 4 6 4 5 7 8 9 6 5
33 32 33 34 36 47 54 42 32 24 11 17 22 21 20 27 44 28 20 23 31 16 13 5 3 4 6 4 5 6 4 4 3 4 4 5 5 3 6 5 6 6 5 6
38 37 39 37 40 47 55 52 44 32 9 17 36 22 28 17 20 19 25 28 20 25 3 3 7 12 7 7 2 3 6 5 4 3 4 11 4 4 7 5 15 6 7 3
41 41 41 37 40 42 54 55 51 41 22 42 21 20 16 27 21 12 6 21 24 33 7 4 4 9 7 10 13 6 4 1 11 3 5 6 5 11 11 6 10 9 10 8
36 40 40 37 41 47 47 48 51 56 31 37 21 33 22 33 29 12 13 13 7 6 12 12 5 6 10 2 6 10 9 8 4 3 3 15 9 5 9 4 7 15 11 7
31 31 33 36 41 44 52 44 51 52 34 11 35 47 43 38 51 37 16 23 8 11 7 4 4 1 1 6 14 2 10 8 7 8 7 5 2 5 10 7 14 7 8 3
26 32 33 33 39 41 43 53 44 38 35 29 37 18 29 44 45 47 18 6 22 15 20 5 3 5 4 5 8 5 2 3 4 3 3 6 17 15 15 12 10 6 1 5
18 22 27 32 41 49 53 39 45 49 10 5 7 25 16 26 43 45 49 35 17 24 13 3 3 3 1 3 2 4 3 4 6 1 5 15 15 12 10 7 5 7 6 6
11 22 27 30 37 58 58 46 41 46 19 4 4 4 6 18 36 48 41 32 30 16 1 2 2 3 4 2 3 3 5 6 7 8 9 7 6 8 2 6 6 7 11 9
14 22 18 11 32 74 56 30 35 54 33 4 3 5 8 24 22 32 34 32 21 12 7 3 5 2 3 4 4 3 12 8 8 6 9 6 4 5 6 6 3 8 11 16
18 25 35 48 69 65 30 11 32 52 40 8 3 1 2 8 7 17 20 19 9 6 6 2 3 2 4 2 3 4 15 11 9 10 8 4 8 8 9 12 12 12 9 8
20 21 32 41 39 38 30 28 40 41 21 4 2 2 3 4 7 6 7 7 6 5 5 5 2 4 2 3 4 9 11 7 9 12 14 7 7 11 9 7 7 8 7 6
20 17 17 28 18 8 16 27 22 17 10 6 3 4 3 6 6 8 6 4 3 4 3 2 4 2 3 5 8 16 11 10 17 16 15 14 12 11 9 7 7 7 7 6
17 7 6 8 7 10 12 8 1 5 5 6 3 4 3 6 3 2 3 4 2 2 0 5 2 1 9 8 10 17 14 15 15 17 12 12 9 7 7 7 7 7 7 6
11 8 7 9 9 4 5 5 4 5 3 5 4 6 4 4 4 3 3 2 1 3 3 3 3 2 4 10 11 14 14 11 9 9 11 10 10 11 11 11 10 9 7 5
11 7 7 9 8 6 5 2 1 2 2 2 2 4 6 6 5 4 1 3 1 3 6 3 3 2 7 19 19 17 13 12 13 11 12 12 12 12 11 10 10 10 10 10
8 7 4 6 5 8 4 2 1 1 2 4 6 4 4 3 6 3 2 3 1 8 3 2 2 8 16 25 23 18 14 11 11 13 13 13 12 12 12 15 15 13 12 10
6 5 7 3 4 4 2 1 1 1 12 19 15 4 3 3 3 1 4 2 3 2 2 4 3 17 25 25 21 20 17 14 13 15 16 15 15 16 17 15 12 10 9 9
5 5 4 5 4 3 3 2 7 18 19 18 7 6 5 3 4 2 3 3 1 3 3 3 14 28 29 24 18 16 16 15 15 16 17 16 17 17 14 11 9 8 7 6
5 6 3 2 4 5 11 13 12 11 13 9 7 3 3 3 3 3 1 4 3 3 2 11 28 30 26 22 17 14 14 14 18 19 18 17 15 12 11 11 9 8 6 4
4 2 8 9 5 2 6 8 7 8 5 2 3 4 2 1 2 1 2 4 3 3 10 24 30 29 24 19 15 15 16 16 19 18 16 13 12 13 12 11 10 8 6 3

GFSNW_850_spd_246.txt.gz
Wind_Speed
21 27 26 26 26 22 20 14 4 9 15 9 6 9 7 22 29 26 19 8 21 18 2 5 12 15 15 24 12 16 8 5 5 8 3 4 5 9 10 5 7 3 3 6
25 23 26 28 28 27 26 13 14 9 19 6 10 5 13 22 23 11 15 13 7 10 24 5 9 7 8 15 16 16 10 5 2 6 5 1 5 6 11 3 4 9 6 6
25 24 26 27 29 30 30 14 4 12 21 17 6 11 19 20 22 29 33 25 27 8 3 5 7 3 4 14 16 20 17 5 9 15 8 4 9 8 10 9 3 6 7 3
29 27 26 25 26 31 35 23 7 9 5 13 18 15 8 18 21 21 23 22 26 26 6 6 9 15 4 3 5 9 7 7 6 7 6 4 4 10 11 12 19 8 9 8
34 33 30 28 26 32 43 16 10 17 16 13 15 22 21 25 27 20 17 25 32 27 29 13 18 9 6 7 2 6 3 5 7 5 7 7 4 5 8 5 4 4 4 6
38 37 34 32 29 31 33 29 35 23 14 15 6 16 19 22 26 28 31 27 25 22 33 28 26 6 9 8 9 7 7 5 3 5 1 5 2 11 8 6 4 8 7 8
35 37 37 36 35 34 42 31 29 18 11 12 18 23 24 23 19 22 26 29 29 41 19 30 17 8 21 16 5 8 7 6 3 8 2 3 8 2 9 13 5 8 4 3
36 39 40 41 40 39 41 38 37 28 14 19 20 22 19 27 27 29 24 40 39 36 27 2 3 1 5 17 11 7 5 6 3 6 7 5 5 3 7 7 8 7 8 4
40 41 42 42 43 41 40 49 47 37 15 19 40 23 30 15 10 14 24 43 46 37 13 3 7 9 10 7 4 4 4 3 5 3 6 17 2 8 12 5 6 9 11 8
42 44 44 45 46 43 42 43 47 39 21 35 30 17 18 24 19 11 10 15 24 39 13 10 7 7 9 7 13 6 3 1 5 2 4 6 6 4 12 6 6 5 11 13
42 40 40 43 47 45 47 46 40 50 28 25 42 39 25 20 28 14 14 12 19 6 8 6 4 4 11 6 19 11 8 6 4 3 1 10 9 1 9 5 5 12 15 12
35 37 38 39 43 50 47 44 42 45 40 18 38 41 32 42 39 23 23 15 7 11 5 4 3 1 1 9 10 4 18 9 5 8 6 1 4 3 7 11 16 12 17 11
28 30 33 37 40 43 46 45 34 38 35 23 27 21 39 46 44 40 12 15 19 20 26 5 3 4 4 5 10 4 3 4 5 4 2 4 13 16 16 17 20 18 12 7
24 26 30 33 36 39 42 49 40 37 11 7 13 41 47 37 28 29 46 49 48 21 18 3 3 3 2 4 3 7 4 7 7 1 6 14 8 15 16 15 13 10 6 3
14 19 24 33 34 37 41 48 42 52 33 4 8 21 29 28 34 45 43 45 41 29 3 3 3 3 4 1 2 3 5 6 6 8 16 6 8 20 14 11 8 5 3 6
12 21 33 40 46 42 36 11 30 49 47 7 2 9 14 19 27 36 44 44 39 7 4 3 4 4 3 4 5 3 9 8 8 5 11 5 16 16 11 9 7 7 6 7
27 20 34 16 41 57 48 9 21 51 42 7 2 3 9 6 10 20 17 19 15 8 6 2 3 3 6 1 6 5 14 13 14 19 20 13 18 10 12 7 7 6 8 12
27 15 28 44 43 46 21 6 30 49 25 8 3 2 3 4 5 4 5 7 7 5 4 4 2 4 3 3 4 10 18 16 16 17 10 8 11 11 4 9 9 10 11 11
13 17 19 25 33 19 22 37 44 32 10 3 3 1 1 4 1 6 5 5 3 3 2 2 4 3 5 3 6 15 22 15 15 14 11 10 12 13 12 13 14 14 13 11
21 8 8 8 8 17 35 19 7 7 8 2 2 2 2 2 2 2 3 4 2 2 1 6 1 2 3 3 12 22 18 15 21 24 19 20 18 16 14 13 12 10 10 10
15 9 7 7 8 5 4 3 2 3 3 6 3 2 3 2 1 2 4 2 2 2 2 2 2 1 1 8 13 18 18 26 20 18 20 15 16 16 15 13 12 11 10 9
4 2 3 4 4 4 4 1 3 1 2 2 2 3 2 5 4 3 3 2 2 3 4 3 3 2 16 23 24 23 24 22 20 18 20 19 18 16 16 15 13 11 11 12
4 3 3 3 2 5 3 2 1 2 2 3 4 2 2 2 3 3 3 4 2 4 3 3 2 9 18 27 28 25 22 21 21 19 18 19 20 16 15 16 14 16 16 13
4 4 6 3 3 3 2 2 1 2 9 14 8 3 3 1 3 2 5 2 3 2 2 3 4 16 20 27 27 27 22 19 21 20 19 20 21 21 20 19 16 15 13 12
4 4 4 3 4 2 4 2 10 16 17 14 6 5 4 3 4 2 3 2 1 3 3 2 13 21 27 27 24 24 24 23 22 20 22 24 25 24 21 16 14 12 11 10
5 7 3 2 2 6 8 10 8 6 4 4 5 3 3 3 2 2 1 4 2 3 1 11 23 26 28 25 21 20 21 22 23 22 24 24 22 19 18 18 16 14 11 9
4 2 8 6 4 3 5 8 10 10 6 2 2 4 3 1 2 2 1 3 2 2 9 17 28 31 26 22 19 19 20 23 23 23 22 21 17 17 18 17 15 11 9 6

GFSNW_850_spd_252.txt.gz
Wind_Speed
10 9 8 8 11 10 9 6 3 8 17 11 9 11 7 9 15 10 9 11 15 15 13 10 9 9 20 13 26 24 19 12 19 29 17 19 23 27 28 12 18 9 14 17
10 9 10 10 8 13 14 7 8 12 19 8 12 12 12 19 15 15 10 13 12 15 21 9 13 15 21 27 25 16 16 11 13 25 23 18 14 26 23 24 14 14 14 15
15 14 12 11 11 13 16 8 4 10 23 20 16 16 20 21 16 21 28 20 16 17 20 16 12 15 9 29 39 38 14 11 16 18 26 22 17 23 26 23 12 19 19 23
19 19 18 15 14 14 17 13 7 12 7 15 21 20 14 18 22 19 16 15 22 22 22 20 24 24 27 27 27 21 8 15 16 22 32 30 27 25 26 23 26 23 23 24
22 21 20 18 18 17 22 10 6 12 23 21 23 22 25 26 24 19 15 21 21 16 17 21 24 23 20 15 17 15 12 5 20 26 29 28 28 24 26 28 29 27 28 24
28 29 28 27 25 24 20 23 17 8 15 24 15 22 27 28 26 27 31 24 20 18 15 21 26 29 20 19 17 20 12 4 6 26 29 22 17 31 28 24 21 21 21 23
25 26 27 27 28 33 33 20 18 11 15 14 20 26 29 30 27 25 27 21 20 32 29 31 34 39 35 31 31 27 16 21 11 6 12 20 23 16 25 27 25 20 19 16
25 26 29 29 32 36 38 34 26 15 13 25 20 23 24 31 31 26 28 31 27 19 19 14 12 14 22 28 29 25 21 22 6 6 4 10 19 23 17 19 20 23 20 13
29 30 32 32 35 35 38 42 38 25 13 19 29 27 30 20 19 19 30 31 27 23 12 12 18 13 17 15 14 27 26 28 16 5 6 13 22 16 16 10 16 19 19 15
30 32 35 39 40 39 41 37 43 39 27 30 26 11 15 29 25 15 22 24 23 24 12 14 16 18 19 20 20 17 17 16 17 12 7 11 9 5 21 13 15 14 16 21
27 29 32 36 42 43 45 47 44 43 36 39 26 34 38 26 23 15 17 9 15 12 13 13 14 13 17 19 30 24 14 13 9 8 9 19 11 16 18 10 0 9 20 28
30 33 33 35 38 44 44 48 47 48 35 27 30 43 36 35 36 31 28 15 15 13 7 11 12 14 9 21 20 22 11 15 15 16 13 4 12 17 12 10 12 14 20 19
25 24 22 21 26 35 43 48 42 44 42 37 37 40 34 34 41 41 27 25 35 28 24 12 5 8 5 14 21 15 20 27 17 10 17 13 10 4 5 9 16 20 22 24
15 17 16 18 21 29 36 44 43 45 17 8 14 25 43 46 39 40 49 48 29 24 25 16 5 8 2 7 9 14 22 20 20 19 8 8 6 3 9 13 18 20 21 21
12 12 13 16 20 27 30 38 44 47 32 3 12 23 23 27 42 40 44 46 40 30 16 6 7 9 8 9 8 16 29 19 16 13 15 13 9 17 18 23 23 17 20 19
16 17 22 17 19 23 25 16 40 40 44 10 4 8 10 22 31 39 44 46 41 34 22 10 13 22 10 6 8 27 43 22 21 16 7 11 19 23 20 22 20 16 14 15
19 20 18 23 27 26 26 7 9 35 40 8 3 4 10 18 27 33 34 37 29 23 18 13 10 13 9 4 16 31 20 9 9 21 27 20 24 17 22 23 22 22 21 18
7 7 10 16 14 33 26 13 9 34 30 7 3 2 5 17 14 10 30 15 18 15 8 8 8 10 9 9 21 37 19 12 14 11 5 18 20 26 23 22 25 26 24 21
6 6 11 11 16 10 19 18 18 36 10 5 5 4 5 11 12 14 14 19 6 10 8 7 9 6 8 12 20 22 22 16 17 17 20 26 27 23 23 25 23 21 21 21
4 4 0 4 11 29 31 16 13 7 5 6 3 4 4 12 13 6 6 9 5 5 7 14 6 11 21 18 11 5 10 17 21 28 19 25 26 29 24 22 20 24 26 27
0 2 3 14 25 7 3 5 5 6 3 7 8 13 5 8 4 3 5 4 5 4 5 6 5 4 9 10 4 7 11 14 8 14 25 21 32 31 29 26 27 29 29 28
7 10 12 14 5 3 3 4 4 5 3 4 4 6 7 5 5 2 5 3 4 4 7 3 3 2 9 11 11 13 16 19 21 26 28 27 27 30 33 33 31 29 26 23
7 4 4 4 4 5 4 4 3 3 3 6 3 2 6 4 4 1 2 4 2 1 3 2 2 4 9 15 22 25 24 24 26 27 26 28 31 30 31 33 29 27 26 24
3 5 3 3 2 2 1 3 3 1 4 5 6 2 1 3 3 3 3 0 2 2 2 1 3 10 13 20 27 29 29 28 30 32 32 32 33 32 29 27 27 30 30 27
2 1 2 0 3 2 2 3 3 5 6 5 4 2 3 2 2 2 1 2 2 2 2 2 9 17 20 22 25 28 30 31 31 31 34 33 31 33 33 31 30 28 27 25
1 1 3 3 1 3 4 3 4 5 4 3 4 3 2 2 1 2 3 2 2 2 2 10 18 19 18 21 24 22 26 27 27 29 31 34 35 34 32 30 29 27 24 23
2 2 2 2 4 2 1 1 3 2 2 1 1 1 1 1 2 1 2 2 3 4 11 15 17 18 18 22 25 26 27 28 30 33 34 34 29 33 34 33 28 24 20 18

GFSNW_850_spd_255.txt.gz
Wind_Speed
9 8 8 11 12 9 8 3 5 4 10 11 14 12 9 7 20 15 15 12 18 21 19 20 18 20 19 24 25 14 19 11 17 27 25 28 24 22 27 17 26 16 19 19
10 9 9 9 10 14 10 5 10 5 12 7 13 16 15 18 19 19 13 18 15 16 20 22 21 22 26 21 13 13 17 7 10 25 20 20 26 29 28 23 21 24 17 17
11 10 10 11 12 14 14 4 3 8 16 21 16 17 19 21 15 14 20 23 25 23 21 18 21 23 22 21 26 17 15 14 16 17 26 19 23 33 31 27 18 20 23 29
14 14 14 14 13 15 15 9 9 11 5 14 20 20 18 17 18 21 19 15 18 23 22 21 23 24 22 21 23 10 4 9 20 23 27 28 26 28 29 32 24 25 27 26
17 18 18 17 17 17 20 7 8 13 21 24 19 18 22 24 21 20 20 21 20 20 19 19 22 22 21 20 16 14 4 6 19 19 29 28 29 29 28 30 31 36 32 31
22 23 22 21 21 23 19 19 18 14 14 19 16 18 20 22 22 25 28 23 20 21 19 25 25 27 26 21 17 16 15 6 5 12 23 27 25 28 32 33 32 30 24 26
25 26 27 29 30 30 28 22 18 11 13 15 18 22 24 22 24 23 26 26 19 24 23 25 27 28 28 29 27 28 22 18 8 14 19 18 17 24 31 28 31 31 30 29
23 23 24 26 30 34 36 32 30 15 11 23 23 28 28 25 27 27 28 30 29 24 20 13 12 14 20 23 25 23 23 18 11 10 15 26 32 20 23 27 31 29 33 29
22 23 25 26 28 31 34 36 36 33 23 16 28 27 27 17 17 19 30 28 24 19 13 12 16 13 19 13 10 15 23 23 16 13 10 8 18 14 28 22 23 27 27 26
27 27 28 30 33 34 36 35 37 36 31 30 26 17 19 30 24 16 23 25 25 24 12 13 15 18 23 22 26 23 16 16 19 20 14 16 27 35 22 15 10 14 28 24
26 26 26 29 31 33 39 46 40 37 31 39 31 33 36 30 21 11 17 12 16 11 11 12 12 12 18 21 26 25 22 14 11 18 18 23 23 30 27 13 10 5 7 21
22 24 26 29 31 33 34 49 50 46 34 14 25 44 38 36 37 35 28 13 16 5 6 9 10 12 13 19 18 22 24 20 17 8 7 17 37 29 24 29 13 8 16 25
23 24 25 27 29 32 35 44 44 41 38 32 37 40 33 31 47 35 30 34 38 33 36 18 8 10 7 13 17 24 25 27 16 19 28 31 47 12 8 4 9 12 22 24
18 17 16 18 20 25 27 33 41 45 18 9 19 25 41 43 31 36 46 49 37 34 28 17 6 9 13 13 16 15 12 13 15 22 27 31 47 57 14 10 13 12 16 27
13 16 14 15 15 16 23 26 40 46 32 4 15 26 26 24 39 47 40 40 38 33 23 6 6 12 13 14 12 16 19 19 16 22 30 23 41 17 15 21 25 21 22 22
19 21 21 20 21 21 18 13 31 41 48 13 6 17 20 24 29 31 40 45 39 35 26 13 20 36 23 9 14 29 34 33 36 28 43 36 56 27 19 22 26 25 25 23
20 17 17 21 21 20 23 6 5 28 39 9 3 5 15 21 24 30 31 36 30 24 23 19 26 26 18 8 19 28 26 29 38 42 48 52 37 27 27 27 27 28 27 26
18 6 5 12 16 21 23 24 6 19 29 8 3 3 3 16 19 11 21 18 20 12 10 13 12 20 17 13 21 33 39 39 41 49 53 62 21 29 28 27 28 28 27 28
7 7 1 6 6 4 8 18 14 29 11 4 4 6 7 10 14 11 8 12 4 9 6 12 11 10 11 13 22 29 32 33 36 56 16 30 34 30 27 26 25 30 30 31
4 4 2 1 5 16 22 9 15 6 5 6 4 13 8 11 12 7 4 8 5 4 9 9 8 17 37 40 32 34 33 32 38 23 25 30 28 27 26 25 26 33 32 29
4 4 2 23 20 1 3 5 5 7 4 8 10 20 8 9 4 6 11 2 5 5 6 8 6 13 18 37 45 37 30 29 6 11 21 23 26 29 34 33 31 31 31 31
4 5 13 15 4 3 4 5 4 6 5 4 2 5 10 7 7 4 5 3 3 5 7 5 5 4 6 3 14 13 12 12 13 21 27 30 33 34 35 34 34 34 33 31
5 3 6 6 6 6 5 6 4 4 5 4 2 2 5 5 6 4 3 5 4 6 3 3 3 8 11 11 16 17 20 24 32 34 34 35 35 32 33 37 34 33 31 27
5 6 5 5 5 5 3 5 4 4 2 3 5 3 3 4 3 2 4 0 3 3 3 1 4 5 9 13 18 28 29 29 31 32 30 32 33 35 34 33 31 31 32 29
5 4 4 5 2 5 7 5 3 3 1 4 4 3 4 3 3 3 3 3 3 3 2 3 6 10 15 17 22 27 29 30 31 31 33 35 36 36 34 30 32 33 32 27
4 6 3 2 3 2 1 2 3 5 3 3 5 3 3 4 3 3 4 3 2 2 3 4 13 17 21 24 24 25 24 26 28 30 32 33 33 34 32 29 30 29 27 26
4 3 5 6 9 6 4 2 0 2 4 3 2 3 2 2 3 2 2 3 3 3 5 9 13 17 19 22 23 22 23 25 25 29 32 30 27 29 31 32 28 26 24 22